TimeCDT,TemperatureF,Dew PointF,Humidity,Sea Level PressureIn,VisibilityMPH,Wind Direction,Wind SpeedMPH,Gust SpeedMPH,PrecipitationIn,Events,Conditions,WindDirDegrees,DateUTC
12:15 AM,51.8,24.8,35,29.85,10.0,WNW,13.8,-,N/A,,Clear,290,2012-10-19 05:15:00
12:35 AM,51.8,24.8,35,29.84,10.0,WNW,15.0,-,N/A,,Clear,300,2012-10-19 05:35:00
12:55 AM,51.8,24.8,35,29.84,10.0,WNW,18.4,-,N/A,,Clear,300,2012-10-19 05:55:00
1:15 AM,51.8,24.8,35,29.84,10.0,WNW,18.4,28.8,N/A,,Clear,300,2012-10-19 06:15:00
1:35 AM,51.8,24.8,35,29.84,10.0,WNW,18.4,26.5,N/A,,Clear,300,2012-10-19 06:35:00
1:55 AM,51.8,24.8,35,29.84,10.0,WNW,20.7,-,N/A,,Clear,300,2012-10-19 06:55:00
2:15 AM,51.8,24.8,35,29.84,10.0,WNW,18.4,25.3,N/A,,Clear,300,2012-10-19 07:15:00
2:35 AM,51.8,24.8,35,29.84,10.0,WNW,19.6,25.3,N/A,,Clear,300,2012-10-19 07:35:00
2:55 AM,50.0,24.8,37,29.84,10.0,WNW,15.0,25.3,N/A,,Clear,300,2012-10-19 07:55:00
3:15 AM,50.0,24.8,37,29.83,10.0,WNW,17.3,23.0,N/A,,Clear,300,2012-10-19 08:15:00
3:35 AM,48.2,24.8,40,29.83,10.0,WNW,18.4,24.2,N/A,,Clear,300,2012-10-19 08:35:00
3:55 AM,48.2,24.8,40,29.83,10.0,NW,19.6,26.5,N/A,,Clear,310,2012-10-19 08:55:00
4:15 AM,48.2,23.0,37,29.84,10.0,NW,16.1,-,N/A,,Clear,310,2012-10-19 09:15:00
4:35 AM,48.2,24.8,40,29.84,10.0,NW,19.6,26.5,N/A,,Clear,310,2012-10-19 09:35:00
4:55 AM,48.2,24.8,40,29.84,10.0,NW,19.6,27.6,N/A,,Clear,320,2012-10-19 09:55:00
5:15 AM,48.2,24.8,40,29.84,10.0,NW,19.6,28.8,N/A,,Clear,320,2012-10-19 10:15:00
5:35 AM,48.2,24.8,40,29.85,10.0,NW,17.3,25.3,N/A,,Clear,310,2012-10-19 10:35:00
5:55 AM,46.4,24.8,43,29.86,10.0,WNW,15.0,23.0,N/A,,Clear,300,2012-10-19 10:55:00
6:15 AM,46.4,24.8,43,29.86,10.0,WNW,15.0,-,N/A,,Clear,290,2012-10-19 11:15:00
6:35 AM,44.6,23.0,43,29.86,10.0,WNW,17.3,-,N/A,,Clear,300,2012-10-19 11:35:00
6:55 AM,44.6,21.2,39,29.86,10.0,WNW,17.3,21.9,N/A,,Clear,290,2012-10-19 11:55:00
7:15 AM,44.6,21.2,39,29.86,10.0,WNW,18.4,25.3,N/A,,Clear,300,2012-10-19 12:15:00
7:35 AM,44.6,21.2,39,29.86,10.0,WNW,15.0,18.4,N/A,,Clear,290,2012-10-19 12:35:00
7:55 AM,44.6,21.2,39,29.87,10.0,WNW,18.4,23.0,N/A,,Clear,300,2012-10-19 12:55:00
8:15 AM,44.6,19.4,37,29.88,10.0,WNW,15.0,-,N/A,,Clear,290,2012-10-19 13:15:00
8:35 AM,44.6,19.4,37,29.88,10.0,WNW,19.6,26.5,N/A,,Clear,300,2012-10-19 13:35:00
8:55 AM,44.6,19.4,37,29.88,10.0,WNW,18.4,24.2,N/A,,Clear,300,2012-10-19 13:55:00
9:15 AM,46.4,19.4,34,29.89,10.0,NW,19.6,27.6,N/A,,Clear,310,2012-10-19 14:15:00
9:35 AM,48.2,19.4,32,29.89,10.0,NW,21.9,28.8,N/A,,Clear,320,2012-10-19 14:35:00
9:55 AM,48.2,21.2,34,29.89,10.0,NNW,24.2,31.1,N/A,,Clear,330,2012-10-19 14:55:00
10:15 AM,50.0,21.2,32,29.90,10.0,NNW,24.2,35.7,N/A,,Clear,330,2012-10-19 15:15:00
10:35 AM,50.0,23.0,35,29.91,10.0,NW,23.0,38.0,N/A,,Clear,320,2012-10-19 15:35:00
10:55 AM,51.8,24.8,35,29.92,10.0,NW,21.9,28.8,N/A,,Clear,310,2012-10-19 15:55:00
11:15 AM,51.8,26.6,38,29.91,10.0,NNW,23.0,29.9,N/A,,Clear,330,2012-10-19 16:15:00
11:35 AM,53.6,28.4,38,29.92,10.0,NW,24.2,29.9,N/A,,Clear,320,2012-10-19 16:35:00
11:55 AM,53.6,28.4,38,29.92,10.0,NW,20.7,31.1,N/A,,Clear,310,2012-10-19 16:55:00
12:15 PM,55.4,28.4,36,29.92,10.0,WNW,21.9,27.6,N/A,,Clear,290,2012-10-19 17:15:00
12:35 PM,55.4,28.4,36,29.91,10.0,NW,24.2,28.8,N/A,,Clear,320,2012-10-19 17:35:00
12:55 PM,57.2,30.2,36,29.91,10.0,NW,18.4,31.1,N/A,,Clear,310,2012-10-19 17:55:00
1:15 PM,57.2,30.2,36,29.90,10.0,NW,20.7,26.5,N/A,,Clear,320,2012-10-19 18:15:00
1:35 PM,57.2,30.2,36,29.90,10.0,NW,20.7,29.9,N/A,,Clear,310,2012-10-19 18:35:00
1:55 PM,60.8,30.2,31,29.90,10.0,NW,13.8,23.0,N/A,,Clear,320,2012-10-19 18:55:00
2:35 PM,60.8,30.2,31,29.87,10.0,WNW,19.6,28.8,N/A,,Clear,300,2012-10-19 19:35:00
2:55 PM,62.6,32.0,32,29.86,10.0,NW,16.1,23.0,N/A,,Clear,320,2012-10-19 19:55:00
3:15 PM,62.6,30.2,30,29.86,10.0,NW,19.6,27.6,N/A,,Clear,310,2012-10-19 20:15:00
3:35 PM,62.6,32.0,32,29.86,10.0,NW,16.1,23.0,N/A,,Clear,310,2012-10-19 20:35:00
3:55 PM,62.6,30.2,30,29.85,10.0,NW,18.4,23.0,N/A,,Clear,320,2012-10-19 20:55:00
4:15 PM,62.6,30.2,30,29.85,10.0,NW,17.3,-,N/A,,Clear,320,2012-10-19 21:15:00
4:35 PM,62.6,28.4,27,29.85,10.0,WNW,16.1,27.6,N/A,,Clear,300,2012-10-19 21:35:00
4:55 PM,62.6,28.4,27,29.85,10.0,NW,13.8,21.9,N/A,,Clear,310,2012-10-19 21:55:00
5:15 PM,62.6,28.4,27,29.85,10.0,NW,12.7,-,N/A,,Clear,320,2012-10-19 22:15:00
5:35 PM,62.6,26.6,26,29.85,10.0,NW,13.8,20.7,N/A,,Clear,320,2012-10-19 22:35:00
5:55 PM,62.6,26.6,26,29.84,10.0,NW,11.5,-,N/A,,Clear,310,2012-10-19 22:55:00
6:15 PM,60.8,26.6,27,29.84,10.0,NW,6.9,-,N/A,,Clear,310,2012-10-19 23:15:00
6:35 PM,59.0,26.6,29,29.84,10.0,NW,6.9,-,N/A,,Clear,320,2012-10-19 23:35:00
6:55 PM,55.4,26.6,33,29.85,10.0,Calm,Calm,-,N/A,,Clear,0,2012-10-19 23:55:00
7:15 PM,55.4,24.8,31,29.85,10.0,Calm,Calm,-,N/A,,Clear,0,2012-10-20 00:15:00
7:35 PM,55.4,24.8,31,29.85,10.0,North,4.6,-,N/A,,Clear,360,2012-10-20 00:35:00
7:55 PM,55.4,24.8,31,29.86,10.0,Calm,Calm,-,N/A,,Clear,0,2012-10-20 00:55:00
8:15 PM,53.6,24.8,33,29.85,10.0,Calm,Calm,-,N/A,,Clear,0,2012-10-20 01:15:00
8:35 PM,51.8,24.8,35,29.85,10.0,Calm,Calm,-,N/A,,Clear,0,2012-10-20 01:35:00
8:55 PM,51.8,26.6,38,29.85,10.0,Calm,Calm,-,N/A,,Clear,0,2012-10-20 01:55:00
9:15 PM,51.8,26.6,38,29.85,10.0,Calm,Calm,-,N/A,,Clear,0,2012-10-20 02:15:00
9:35 PM,53.6,24.8,33,29.85,10.0,ENE,4.6,-,N/A,,Clear,70,2012-10-20 02:35:00
9:55 PM,53.6,24.8,33,29.85,10.0,East,4.6,-,N/A,,Clear,90,2012-10-20 02:55:00
10:15 PM,53.6,24.8,33,29.85,10.0,East,3.5,-,N/A,,Clear,100,2012-10-20 03:15:00
10:35 PM,46.4,26.6,46,29.85,10.0,SSE,4.6,-,N/A,,Clear,160,2012-10-20 03:35:00
10:55 PM,46.4,28.4,50,29.84,10.0,SSE,5.8,-,N/A,,Clear,150,2012-10-20 03:55:00
11:15 PM,44.6,28.4,53,29.84,10.0,SSE,4.6,-,N/A,,Clear,160,2012-10-20 04:15:00
11:35 PM,46.4,26.6,46,29.85,10.0,SSE,4.6,-,N/A,,Clear,160,2012-10-20 04:35:00
11:55 PM,48.2,26.6,43,29.85,10.0,SE,5.8,-,N/A,,Clear,140,2012-10-20 04:55:00